| time (UTC) | temp F | wind direction | speed knots | gust knots | rain 1hr in | rain 24hr in | rain mn in | humidity % | barometer mb |
| 20260505111554 | 53 | 323 | 0.0 | 1.7 | 0.01 | 0.01 | 0.01 | 68 | 1015.6 |
| 20260505101537 | 51 | 215 | 0.0 | 0.9 | 0.00 | 0.00 | 0.00 | 67 | 1014.9 |
| 20260505100044 | 51 | 215 | 0.0 | 0.9 | 0.00 | 0.00 | 0.00 | 67 | 1014.7 |
| 20260505094534 | 51 | 215 | 0.0 | 1.7 | 0.00 | 0.00 | 0.00 | 67 | 1014.7 |
| 20260505093033 | 52 | 215 | 0.0 | 0.0 | 0.00 | 0.00 | 0.00 | 66 | 1014.6 |
| 20260505091538 | 52 | 215 | 0.0 | 0.0 | 0.00 | 0.00 | 0.00 | 65 | 1014.6 |
| 20260505090047 | 53 | 215 | 0.0 | 0.0 | 0.00 | 0.00 | 0.00 | 64 | 1014.6 |
| 20260505084534 | 54 | 215 | 0.0 | 0.0 | 0.00 | 0.00 | 0.00 | 63 | 1014.4 |
| 20260505083033 | 54 | 215 | 0.0 | 0.0 | 0.00 | 0.00 | 0.00 | 61 | 1014.5 |
| 20260505081525 | 55 | 215 | 0.0 | 0.9 | 0.00 | 0.00 | 0.00 | 60 | 1014.4 |
| 20260505080024 | 56 | 215 | 0.0 | 1.7 | 0.00 | 0.00 | 0.00 | 60 | 1014.3 |
| 20260505074515 | 56 | 215 | 0.0 | 1.7 | 0.00 | 0.00 | 0.00 | 59 | 1014.2 |
| 20260505073013 | 57 | 215 | 0.0 | 0.9 | 0.00 | 0.00 | 0.00 | 58 | 1014.1 |
| 20260505071522 | 57 | 215 | 0.0 | 2.6 | 0.00 | 0.00 | 0.00 | 56 | 1014.1 |
| 20260505070009 | 58 | 215 | 0.9 | 2.6 | 0.00 | 0.00 | 0.00 | 56 | 1014.1 |
| 20260505064505 | 59 | 215 | 0.9 | 3.5 | 0.00 | 0.00 | 0.00 | 55 | 1014.1 |
| 20260505063003 | 59 | 209 | 0.9 | 4.3 | 0.00 | 0.00 | 0.00 | 54 | 1014.0 |
| 20260505061505 | 60 | 215 | 1.7 | 6.1 | 0.00 | 0.00 | 0.00 | 54 | 1014.0 |
| 20260505054621 | 60 | 214 | 1.7 | 5.2 | 0.00 | 0.00 | 0.00 | 53 | 1014.1 |
| 20260505053056 | 61 | 193 | 2.6 | 5.2 | 0.00 | 0.00 | 0.00 | 53 | 1014.2 |
| 20260505051554 | 61 | 217 | 1.7 | 6.1 | 0.00 | 0.00 | 0.00 | 53 | 1014.3 |
| 20260505041548 | 62 | 228 | 1.7 | 6.1 | 0.00 | 0.00 | 0.00 | 51 | 1014.2 |
| 20260505040046 | 63 | 215 | 1.7 | 8.7 | 0.00 | 0.00 | 0.00 | 51 | 1014.3 |
| 20260505034546 | 63 | 205 | 3.5 | 9.6 | 0.00 | 0.00 | 0.00 | 50 | 1014.3 |
| 20260505033050 | 64 | 219 | 4.3 | 9.6 | 0.00 | 0.00 | 0.00 | 49 | 1014.2 |
| 20260505031544 | 64 | 234 | 2.6 | 7.8 | 0.00 | 0.00 | 0.00 | 49 | 1014.2 |
| 20260505030046 | 65 | 178 | 2.6 | 7.0 | 0.00 | 0.00 | 0.00 | 49 | 1014.3 |
| 20260505024604 | 65 | 225 | 1.7 | 8.7 | 0.00 | 0.00 | 0.00 | 48 | 1014.3 |
| 20260505023043 | 66 | 221 | 1.7 | 7.8 | 0.00 | 0.00 | 0.00 | 48 | 1014.2 |
| 20260505021601 | 66 | 200 | 1.7 | 9.6 | 0.00 | 0.00 | 0.00 | 48 | 1014.1 |
| 20260505020047 | 67 | 153 | 2.6 | 11.3 | 0.00 | 0.00 | 0.00 | 47 | 1014.1 |
| 20260505014545 | 68 | 204 | 2.6 | 10.4 | 0.00 | 0.00 | 0.00 | 45 | 1013.9 |
| 20260505013041 | 68 | 222 | 2.6 | 8.7 | 0.00 | 0.00 | 0.00 | 41 | 1013.7 |
| 20260505011550 | 69 | 250 | 1.7 | 6.1 | 0.00 | 0.00 | 0.00 | 34 | 1013.3 |
| 20260505010043 | 69 | 162 | 1.7 | 5.2 | 0.00 | 0.00 | 0.00 | 33 | 1013.1 |
| 20260505004544 | 70 | 208 | 1.7 | 4.3 | 0.00 | 0.00 | 0.00 | 32 | 1012.9 |
| 20260505003039 | 71 | 213 | 1.7 | 5.2 | 0.00 | 0.00 | 0.00 | 32 | 1012.8 |
| 20260505001539 | 71 | 194 | 1.7 | 4.3 | 0.00 | 0.00 | 0.00 | 30 | 1012.7 |
| 20260505000042 | 73 | 227 | 1.7 | 5.2 | 0.00 | 0.00 | 0.00 | 29 | 1012.6 |
| 20260504234538 | 74 | 205 | 1.7 | 6.1 | 0.00 | 0.00 | 0.00 | 28 | 1012.5 |
| 20260504233053 | 74 | 215 | 0.9 | 5.2 | 0.00 | 0.00 | 0.00 | 27 | 1012.3 |
| 20260504231537 | 75 | 250 | 1.7 | 7.8 | 0.00 | 0.00 | 0.00 | 26 | 1012.2 |
| 20260504230036 | 76 | 193 | 3.5 | 8.7 | 0.00 | 0.00 | 0.00 | 24 | 1012.1 |
| 20260504224535 | 77 | 217 | 3.5 | 7.0 | 0.00 | 0.00 | 0.00 | 23 | 1012.1 |
| 20260504223037 | 78 | 181 | 2.6 | 10.4 | 0.00 | 0.00 | 0.00 | 21 | 1012.1 |
| 20260504221538 | 79 | 223 | 2.6 | 8.7 | 0.00 | 0.00 | 0.00 | 20 | 1012.1 |
| 20260504220033 | 79 | 229 | 3.5 | 7.8 | 0.00 | 0.00 | 0.00 | 19 | 1012.0 |
| 20260504214532 | 80 | 215 | 4.3 | 7.8 | 0.00 | 0.00 | 0.00 | 18 | 1012.2 |
| 20260504213030 | 80 | 213 | 5.2 | 7.8 | 0.00 | 0.00 | 0.00 | 19 | 1012.2 |
| 20260504211529 | 79 | 234 | 5.2 | 10.4 | 0.00 | 0.00 | 0.00 | 17 | 1012.3 |
| 20260504210028 | 79 | 227 | 4.3 | 7.0 | 0.00 | 0.00 | 0.00 | 18 | 1012.3 |
| 20260504204531 | 79 | 236 | 4.3 | 12.2 | 0.00 | 0.00 | 0.00 | 17 | 1012.4 |
| 20260504203025 | 79 | 188 | 3.5 | 9.6 | 0.00 | 0.00 | 0.00 | 19 | 1012.6 |
| 20260504201521 | 78 | 233 | 5.2 | 11.3 | 0.00 | 0.00 | 0.00 | 18 | 1012.7 |
| 20260504200020 | 79 | 213 | 4.3 | 7.8 | 0.00 | 0.00 | 0.00 | 21 | 1012.8 |
| 20260504194519 | 79 | 355 | 3.5 | 10.4 | 0.00 | 0.00 | 0.00 | 18 | 1012.9 |
| 20260504193015 | 78 | 214 | 1.7 | 8.7 | 0.00 | 0.00 | 0.00 | 21 | 1012.9 |
| 20260504191514 | 77 | 199 | 1.7 | 9.6 | 0.00 | 0.00 | 0.00 | 21 | 1013.1 |
| 20260504190010 | 77 | 237 | 2.6 | 7.0 | 0.00 | 0.00 | 0.00 | 20 | 1013.4 |
| 20260504184513 | 77 | 267 | 2.6 | 8.7 | 0.00 | 0.00 | 0.00 | 23 | 1013.6 |
| 20260504183006 | 76 | 240 | 3.5 | 6.1 | 0.00 | 0.00 | 0.00 | 23 | 1013.6 |
| 20260504181505 | 76 | 207 | 3.5 | 7.8 | 0.00 | 0.00 | 0.00 | 24 | 1013.8 |
| 20260504180003 | 76 | 179 | 4.3 | 8.7 | 0.00 | 0.00 | 0.00 | 23 | 1013.9 |
| 20260504174600 | 75 | 238 | 3.5 | 7.8 | 0.00 | 0.00 | 0.00 | 23 | 1014.1 |
| 20260504173100 | 75 | 215 | 2.6 | 13.0 | 0.00 | 0.00 | 0.00 | 29 | 1014.3 |
| 20260504171557 | 74 | 242 | 6.1 | 12.2 | 0.00 | 0.00 | 0.00 | 24 | 1014.7 |